This demonstration page uses our WeatherBlox Daily Observations layout. Learn more.

Left ArrowRight Arrow

Hourly Observations for December 13, 2018

Temp ( °F °C ) Dew Point ( °F °C ) Humidity (%) Winds ( mph kmh ) Pressure ( in mb ) Visibility ( mi km ) Precip ( " mm )
12:57 am 00:57 Mostly Cloudy 36 2.2 32 0 86 86 NNW 23 37 29.83 1010 10 16 0.00 0.00
1:57 am 01:57 Cloudy 37 2.8 33 0.6 86 86 NNW 21 33 29.86 1011 10 16 0.00 0.00
2:57 am 02:57 Cloudy 36 2.2 33 0.6 89 89 NNW 20 31 29.89 1012 10 16 0.00 0.00
3:31 am 03:31 Cloudy 37 3 34 1 87 87 NNW 18 30 29.94 1014 10 16 0.00 0.00
3:57 am 03:57 Cloudy 36 2.2 33 0.6 89 89 NNW 16 26 29.93 1014 10 16 0.00 0.00
4:32 am 04:32 Cloudy 37 3 32 0 81 81 NNW 20 31 29.97 1015 10 16 0.00 0.00
4:57 am 04:57 Cloudy 36 2.2 32 0 86 86 NNW 21 33 29.95 1014 10 16 0.00 0.00
5:57 am 05:57 Cloudy 37 2.8 31 -0.6 79 79 NNW 24 39 29.98 1015 10 16 0.00 0.00
6:16 am 06:16 Cloudy 37 3 30 -1 75 75 N 25 41 30.00 1016 10 16 0.00 0.00
6:57 am 06:57 Cloudy 36 2.2 31 -0.6 82 82 N 22 35 30.01 1016 10 16 0.00 0.00
7:57 am 07:57 Cloudy 36 2.2 31 -0.6 82 82 N 21 33 30.06 1018 10 16 0.00 0.00
8:57 am 08:57 Cloudy 36 2.2 31 -0.6 82 82 N 23 37 30.09 1019 10 16 0.00 0.00
9:19 am 09:19 Partly Cloudy 37 3 30 -1 75 75 N 21 33 30.12 1020 10 16 0.00 0.00
9:57 am 09:57 Sunny 37 2.8 30 -1.1 76 76 N 22 35 30.11 1020 10 16 0.00 0.00
10:57 am 10:57 Sunny 38 3.3 30 -1.1 73 73 N 24 39 30.14 1021 10 16 0.00 0.00
11:57 am 11:57 Sunny 39 3.9 29 -1.7 67 67 N 20 31 30.14 1021 10 16 0.00 0.00
12:57 pm 12:57 Sunny 40 4.4 27 -2.8 60 60 N 17 28 30.15 1021 10 16 0.00 0.00
1:57 pm 13:57 Sunny 41 5 28 -2.2 60 60 N 17 28 30.16 1021 10 16 0.00 0.00
2:57 pm 14:57 Sunny 41 5 28 -2.2 60 60 NNW 15 24 30.18 1022 10 16 0.00 0.00
3:57 pm 15:57 Sunny 39 3.9 28 -2.2 65 65 NNW 15 24 30.20 1023 10 16 0.00 0.00
4:57 pm 16:57 Sunny 37 2.8 28 -2.2 70 70 NNW 15 24 30.22 1023 10 16 0.00 0.00
5:57 pm 17:57 Clear 34 1.1 28 -2.2 79 79 NW 10 17 30.23 1024 10 16 0.00 0.00
6:57 pm 18:57 Clear 32 0 28 -2.2 85 85 NW 9 15 30.26 1025 10 16 0.00 0.00
7:57 pm 19:57 Clear 31 -0.6 26 -3.3 82 82 NNW 12 19 30.26 1025 10 16 0.00 0.00
8:57 pm 20:57 Clear 29 -1.7 25 -3.9 85 85 NW 9 15 30.27 1025 10 16 0.00 0.00
9:57 pm 21:57 Clear 26 -3.3 24 -4.4 92 92 NW 9 15 30.29 1026 10 16 0.00 0.00
10:57 pm 22:57 Clear 27 -2.8 23 -5 85 85 NW 10 17 30.30 1026 10 16 0.00 0.00
11:57 pm 23:57 Clear 25 -3.9 21 -6.1 85 85 NW 8 13 30.32 1027 10 16 0.00 0.00

Powered by AerisWeather